Weather History for Bonaire, Bonaire

Change the Weather History Date:

Monday, April 9, 2012

  Actual Average Record
Temperature  
Mean Temperature 80 °F -  
Max Temperature 86 °F 85 °F 89 °F (2006)
Min Temperature 75 °F 79 °F 75 °F (2012)
Cooling Degree Days 16    
Growing Degree Days 30 (Base 50)    
Moisture  
Dew Point 72 °F    
Average Humidity 76    
Maximum Humidity 94    
Minimum Humidity 49    
Precipitation  
Precipitation 0.04 in - - ()
Sea Level Pressure  
Sea Level Pressure 29.88 in    
Wind  
Wind Speed 6 mph ()    
Max Wind Speed 15 mph    
Max Gust Speed -    
Visibility 6.2 miles    
Events Rain    
Averages and records for this station are not official NWS values.
T = Trace of Precipitation, MM = Missing Value Source: Averaged Metar Reports

Daily Weather History Graph

Daily Weather History Graph

Search for Another Location

Airport:

Trip Planner

Search our weather history database for the weather conditions in past years. The results will help you decide how hot, cold, wet, or windy it might be!

Date:

Astronomy

Apr. 09, 2012 Rise Set
Actual Time 6:24 AM AST 6:44 PM AST
Civil Twilight 6:02 AM AST 7:06 PM AST
Nautical Twilight 5:38 AM AST 7:31 PM AST
Astronomical Twilight 5:13 AM AST 7:56 PM AST
Moon 9:56 PM AST (4/9) 8:45 AM AST (4/9)
Length of Visible Light 13h 03m
Length of Day
12h 20m
Waning Gibbous, 88% of the Moon is Illuminated
Apr 9
Waning Gibbous
Apr 13
Last Quarter
Apr 21
New
Apr 29
First Quarter
May 5
Full

Hourly Weather History & Observations

Time (AST) Temp. Heat Index Dew Point Humidity Pressure Visibility Wind Dir Wind Speed Gust Speed Precip Events Conditions
12:00 AM 78.8 °F - 73.4 °F 83% 29.92 in - North - - N/A   Unknown
1:00 AM 78.8 °F - 73.4 °F 83% 29.92 in - North - - N/A Rain Rain
2:00 AM 77 °F - 74 °F 88%  in - Calm Calm - -   Clear
2:00 AM 77.0 °F - 73.4 °F 89% 29.89 in - North - - N/A   Unknown
3:00 AM 77.0 °F - 73.4 °F 89% 29.86 in - North - - N/A   Unknown
4:00 AM 77.0 °F - 73.4 °F 89% 29.86 in - North - - N/A   Unknown
5:00 AM 76 °F - 74 °F 90%  in - Calm Calm - -   Clear
5:00 AM 77.0 °F - 73.4 °F 89% 29.86 in - North - - N/A   Unknown
6:00 AM 75.2 °F - 73.4 °F 94% 29.86 in - North - - N/A   Unknown
7:00 AM 77.0 °F - 73.4 °F 89% 29.89 in - North - - N/A   Unknown
8:00 AM 82 °F - 75 °F 75%  in - Calm Calm - -   Clear
8:00 AM 82.4 °F 89.5 °F 75.2 °F 79% 29.92 in - North - - N/A   Unknown
9:00 AM 80.6 °F 85.4 °F 73.4 °F 79% 29.92 in - North - - N/A   Unknown
10:00 AM 82.4 °F 88.2 °F 73.4 °F 74% 29.92 in 6.2 mi East 13.8 mph - N/A   Mostly Cloudy
11:00 AM 84 °F - 73 °F 62% 29.94 in 22 mi SSE 13.8 mph - -   Mostly Cloudy
11:00 AM 84.2 °F 90.9 °F 73.4 °F 70% 29.92 in 6.2 mi SSE 13.8 mph - N/A   Mostly Cloudy
12:00 PM 84.2 °F 90.9 °F 73.4 °F 70% 29.92 in 6.2 mi SSE 15.0 mph - N/A   Scattered Clouds
2:00 PM 84.2 °F 89.6 °F 71.6 °F 66% 29.89 in 6.2 mi East 10.4 mph - N/A   Scattered Clouds
3:00 PM 84.2 °F 90.9 °F 73.4 °F 70% 29.86 in 6.2 mi ESE 11.5 mph - N/A   Scattered Clouds
4:00 PM 86.0 °F 90.4 °F 69.8 °F 58% 29.83 in 6.2 mi East 11.5 mph - N/A   Partly Cloudy
5:00 PM 85 °F - 69 °F 49% 29.84 in 22 mi East 10.4 mph - -   Scattered Clouds
5:00 PM 84.2 °F 88.4 °F 69.8 °F 62% 29.83 in 6.2 mi East 10.4 mph - N/A   Partly Cloudy
6:00 PM 82.4 °F 86.3 °F 69.8 °F 66% 29.83 in 6.2 mi East 8.1 mph - N/A   Partly Cloudy
7:00 PM 80.6 °F 83.9 °F 69.8 °F 70% 29.83 in 6.2 mi East 8.1 mph - N/A   Partly Cloudy
8:00 PM 79 °F - 70 °F 68% 29.86 in 22 mi East 5.8 mph - -   Scattered Clouds
8:00 PM 78.8 °F - 69.8 °F 74% 29.86 in 6.2 mi East 5.8 mph - N/A   Partly Cloudy
9:00 PM 78.8 °F - 69.8 °F 74% 29.86 in - North - - N/A   Unknown
10:00 PM 78.8 °F - 71.6 °F 78% 29.89 in - North - - N/A   Unknown
11:00 PM 78.8 °F - 71.6 °F 78% 29.89 in - North - - N/A   Unknown